Date String (YYYY-MM-DD hh:mm:ss) UTC,Instrument flags,absolute air pressure of the measurement (hPa),sample flow rate (lpm),inlet stack bypass flow (lpm),air temperature of the measurement (°C),ambient temperature measured by the external sensor (°C),aerosol sample conditioner tube jacket temperature (°C),OPC LED temperature (°C),internal box temperature (°C),relative humidity of the measurement (%),span deviation,mass concentration of particles derived from Lorenz-Mie calculation of OPC scattering (μg/m³),mass concentration of particles derived from Lorenz-Mie calculation of OPC scattering (μg/m³),mass concentration of particles derived from Lorenz-Mie calculation of OPC scattering (μg/m³)
DateTimeUTC,F1_M11,P_M11,Q1_M11,Q2_M11,T1_M11,T2_M11,T3_M11,T4_M11,T5_M11,U1_M11,ZSPAN_M11,X2_M11,X0_M11,X1_M11
2024-02-01 03:00:00,SystemResetWarning,0827.1,5.00,000.00,025.9,025.2,000.0,034.3,027.7,08.4,0000.0,0004.39,0014.80,0003.77
2024-02-01 03:01:00,SystemResetWarning,0827.0,5.00,000.00,025.9,025.2,000.0,034.3,027.7,08.4,0000.0,0004.43,0014.94,0003.80
2024-02-01 03:02:00,SystemResetWarning,0827.1,5.00,000.00,026.0,025.3,000.0,034.3,027.7,08.4,0000.0,0004.45,0015.31,0003.84
2024-02-01 03:03:00,SystemResetWarning,0827.1,5.01,000.00,026.0,025.3,000.0,034.3,027.7,08.4,0000.0,0004.50,0014.20,0003.89
2024-02-01 03:04:00,SystemResetWarning,0827.1,5.00,000.00,026.0,025.3,000.0,034.3,027.7,08.4,0000.0,0004.53,0014.04,0003.92
2024-02-01 03:05:00,SystemResetWarning,0827.1,5.00,000.00,026.0,025.3,000.0,034.3,027.7,08.4,0000.0,0004.53,0013.85,0003.94
2024-02-01 03:06:00,SystemResetWarning,0827.1,5.00,000.00,026.0,025.3,000.0,034.3,027.7,08.4,0000.0,0004.59,0013.67,0003.94
2024-02-01 03:07:00,SystemResetWarning,0827.0,5.00,000.00,026.0,025.3,000.0,034.3,027.7,08.4,0000.0,0004.58,0013.33,0003.93
2024-02-01 03:08:00,SystemResetWarning,0827.0,4.99,000.00,026.0,025.3,000.0,034.3,027.7,08.4,0000.0,0004.49,0013.27,0003.87
2024-02-01 03:09:00,SystemResetWarning,0827.1,5.00,000.00,026.0,025.3,000.0,034.3,027.7,08.4,0000.0,0004.43,0013.03,0003.80
2024-02-01 03:10:00,SystemResetWarning,0827.0,5.00,000.00,026.0,025.3,000.0,034.3,027.7,08.4,0000.0,0004.35,0012.16,0003.75
2024-02-01 03:11:00,SystemResetWarning,0827.1,5.00,000.00,026.0,025.3,000.0,034.3,027.7,08.5,0000.0,0004.28,0011.11,0003.70
2024-02-01 03:12:00,SystemResetWarning,0827.0,5.01,000.00,026.0,025.3,000.0,034.3,027.7,08.5,0000.0,0004.26,0010.51,0003.68
2024-02-01 03:13:00,SystemResetWarning,0827.1,4.98,000.00,026.0,025.3,000.0,034.3,027.7,08.5,0000.0,0004.24,0010.13,0003.67
2024-02-01 03:14:00,SystemResetWarning,0827.0,4.99,000.00,026.0,025.3,000.0,034.3,027.7,08.5,0000.0,0004.24,0010.24,0003.67
2024-02-01 03:15:00,SystemResetWarning,0827.0,5.00,000.00,026.0,025.3,000.0,034.3,027.8,08.5,0000.0,0004.27,0010.33,0003.68
2024-02-01 03:16:00,SystemResetWarning,0827.0,5.00,000.00,026.0,025.3,000.0,034.3,027.8,08.5,0000.0,0004.29,0011.04,0003.71
2024-02-01 03:17:00,SystemResetWarning,0827.0,5.01,000.00,026.0,025.3,000.0,034.3,027.7,08.6,0000.0,0004.32,0011.71,0003.74
2024-02-01 03:18:00,SystemResetWarning,0827.0,4.99,000.00,026.0,025.3,000.0,034.3,027.7,08.7,0000.0,0004.32,0011.64,0003.75
2024-02-01 03:19:00,SystemResetWarning,0826.9,4.99,000.00,026.0,025.3,000.0,034.3,027.7,08.6,0000.0,0004.37,0011.65,0003.75
2024-02-01 03:20:00,SystemResetWarning,0827.0,5.01,000.00,026.0,025.3,000.0,034.3,027.7,08.5,0000.0,0004.32,0011.27,0003.75
2024-02-01 03:21:00,SystemResetWarning,0826.9,5.01,000.00,026.0,025.3,000.0,034.3,027.8,08.5,0000.0,0004.37,0011.33,0003.77
2024-02-01 03:22:00,SystemResetWarning,0826.9,5.00,000.00,026.0,025.3,000.0,034.3,027.8,08.5,0000.0,0004.42,0011.52,0003.81
2024-02-01 03:23:00,SystemResetWarning,0826.9,5.00,000.00,026.0,025.3,000.0,034.3,027.8,08.5,0000.0,0004.48,0012.95,0003.84
2024-02-01 03:24:00,SystemResetWarning,0826.9,5.00,000.00,026.0,025.3,000.0,034.4,027.8,08.4,0000.0,0004.53,0014.52,0003.85
2024-02-01 03:25:00,SystemResetWarning,0826.9,5.00,000.00,026.0,025.3,000.0,034.4,027.8,08.3,0000.0,0004.48,0015.50,0003.82
2024-02-01 03:26:00,SystemResetWarning,0826.9,5.00,000.00,026.0,025.3,000.0,034.4,027.8,08.3,0000.0,0004.40,0015.73,0003.75
2024-02-01 03:27:00,SystemResetWarning,0826.9,4.99,000.00,026.0,025.3,000.0,034.4,027.8,08.3,0000.0,0004.31,0015.07,0003.67
2024-02-01 03:28:00,SystemResetWarning,0826.9,5.01,000.00,026.0,025.3,000.0,034.4,027.8,08.4,0000.0,0004.25,0014.41,0003.61
2024-02-01 03:29:00,SystemResetWarning,0826.9,5.01,000.00,026.0,025.3,000.0,034.4,027.8,08.4,0000.0,0004.21,0014.54,0003.57
2024-02-01 03:30:00,SystemResetWarning,0826.9,5.00,000.00,026.0,025.3,000.0,034.4,027.8,08.4,0000.0,0004.17,0015.38,0003.55
2024-02-01 03:31:00,SystemResetWarning,0826.9,5.00,000.00,026.0,025.3,000.0,034.4,027.8,08.4,0000.0,0004.15,0015.57,0003.50
2024-02-01 03:32:00,SystemResetWarning,0826.9,4.98,000.00,026.0,025.3,000.0,034.4,027.8,08.4,0000.0,0004.06,0015.48,0003.42
2024-02-01 03:33:00,SystemResetWarning,0826.8,5.00,000.00,026.0,025.3,000.0,034.4,027.8,08.4,0000.0,0003.93,0015.41,0003.33
2024-02-01 03:34:00,SystemResetWarning,0826.8,5.02,000.00,026.0,025.3,000.0,034.4,027.8,08.4,0000.0,0003.78,0014.09,0003.23
2024-02-01 03:35:00,SystemResetWarning,0826.9,5.00,000.00,026.0,025.3,000.0,034.4,027.8,08.3,0000.0,0003.63,0011.58,0003.14
2024-02-01 03:36:00,SystemResetWarning,0826.9,4.99,000.00,026.0,025.3,000.0,034.4,027.8,08.4,0000.0,0003.62,0010.94,0003.11
2024-02-01 03:37:00,SystemResetWarning,0826.9,4.99,000.00,026.0,025.3,000.0,034.4,027.8,08.4,0000.0,0003.67,0010.38,0003.14
2024-02-01 03:38:00,SystemResetWarning,0826.9,4.99,000.00,026.0,025.3,000.0,034.4,027.8,08.3,0000.0,0003.66,0010.25,0003.13
2024-02-01 03:39:00,SystemResetWarning,0826.9,5.02,000.00,026.0,025.3,000.0,034.4,027.8,08.4,0000.0,0003.57,0010.06,0003.05
2024-02-01 03:40:00,SystemResetWarning,0826.9,4.99,000.00,026.0,025.3,000.0,034.4,027.8,08.3,0000.0,0003.49,0009.82,0002.92
2024-02-01 03:41:00,SystemResetWarning,0826.9,4.98,000.00,026.0,025.3,000.0,034.4,027.8,08.3,0000.0,0003.35,0008.50,0002.76
2024-02-01 03:42:00,SystemResetWarning,0827.0,5.01,000.00,026.0,025.3,000.0,034.4,027.8,08.3,0000.0,0003.30,0008.29,0002.70
2024-02-01 03:43:00,SystemResetWarning,0826.9,5.01,000.00,026.0,025.3,000.0,034.4,027.8,08.3,0000.0,0003.28,0008.30,0002.67
2024-02-01 03:44:00,SystemResetWarning,0827.0,4.98,000.00,026.0,025.3,000.0,034.4,027.8,08.3,0000.0,0003.30,0008.47,0002.68
2024-02-01 03:45:00,SystemResetWarning,0827.0,5.02,000.00,026.0,025.3,000.0,034.4,027.8,08.3,0000.0,0003.34,0008.50,0002.73
2024-02-01 03:46:00,SystemResetWarning,0826.9,5.01,000.00,026.0,025.3,000.0,034.4,027.8,08.4,0000.0,0003.36,0008.48,0002.78
2024-02-01 03:47:00,SystemResetWarning,0826.9,5.00,000.00,026.0,025.3,000.0,034.4,027.8,08.4,0000.0,0003.29,0008.32,0002.70
2024-02-01 03:48:00,SystemResetWarning,0827.0,4.99,000.00,026.0,025.3,000.0,034.4,027.8,08.4,0000.0,0003.17,0008.18,0002.53
2024-02-01 03:49:00,SystemResetWarning,0827.0,4.99,000.00,026.0,025.3,000.0,034.4,027.8,08.5,0000.0,0003.10,0009.07,0002.43
2024-02-01 03:50:00,SystemResetWarning,0827.0,4.99,000.00,026.0,025.3,000.0,034.4,027.8,08.5,0000.0,0003.06,0009.01,0002.38
2024-02-01 03:51:00,SystemResetWarning,0827.0,5.00,000.00,026.0,025.3,000.0,034.4,027.8,08.5,0000.0,0003.01,0008.95,0002.32
2024-02-01 03:52:00,SystemResetWarning,0827.0,5.00,000.00,026.0,025.3,000.0,034.4,027.8,08.5,0000.0,0003.03,0010.24,0002.32
2024-02-01 03:53:00,SystemResetWarning,0827.0,5.01,000.00,026.0,025.3,000.0,034.4,027.8,08.6,0000.0,0002.96,0010.29,0002.26
2024-02-01 03:54:00,SystemResetWarning,0827.0,5.01,000.00,026.0,025.2,000.0,034.4,027.7,08.8,0000.0,0002.86,0010.24,0002.18
2024-02-01 03:55:00,SystemResetWarning,0827.0,4.98,000.00,026.0,025.2,000.0,034.4,027.7,08.9,0000.0,0002.69,0010.03,0002.06
2024-02-01 03:56:00,SystemResetWarning,0827.0,4.99,000.00,026.0,025.2,000.0,034.4,027.7,09.0,0000.0,0002.43,0009.42,0001.85
2024-02-01 03:57:00,SystemResetWarning,0827.0,5.01,000.00,026.0,025.2,000.0,034.4,027.7,09.0,0000.0,0002.18,0009.10,0001.64
2024-02-01 03:58:00,SystemResetWarning,0827.0,5.01,000.00,026.0,025.2,000.0,034.4,027.7,08.9,0000.0,0001.99,0008.36,0001.48
2024-02-01 03:59:00,SystemResetWarning,0827.0,5.00,000.00,026.0,025.2,000.0,034.4,027.7,08.8,0000.0,0001.89,0008.26,0001.40
